Wind_Speed
8 9 9 10 9 10 10 10 11 12 13 13 14 15 15 14 14 14 14 14 15 16 16 15 16 16 17 18 19 19 19 20 21 21 20 21 21 22
10 10 10 10 11 11 11 12 12 12 13 15 15 16 15 15 15 15 15 15 16 16 16 16 16 16 17 17 18 19 19 20 20 20 20 21 21 22
11 11 11 12 12 12 13 13 14 14 15 15 16 16 16 16 17 16 16 17 17 18 18 17 17 18 18 18 18 19 19 20 21 21 21 21 22 23
12 12 12 13 13 14 14 15 15 16 16 16 15 16 16 16 16 17 18 18 18 18 18 18 19 20 20 19 20 20 20 21 21 21 21 22 22 23
13 13 14 14 15 15 16 16 16 17 17 17 17 17 17 18 18 18 19 19 19 19 20 20 21 21 20 20 21 22 22 23 23 23 23 23 23 24
15 15 15 15 16 16 17 17 18 18 18 18 18 18 18 18 18 18 19 19 20 21 21 21 22 22 21 21 22 23 24 24 24 24 24 24 25 26
16 16 16 17 17 17 18 18 18 18 18 19 19 19 19 19 18 18 19 20 21 22 23 22 23 24 23 24 24 24 24 24 24 25 25 26 26 26
17 17 17 17 18 18 18 19 19 19 19 19 19 19 19 20 19 20 20 21 22 22 22 23 24 24 24 23 24 24 24 25 25 26 27 27 26 26
18 18 17 18 18 19 19 19 19 20 20 20 20 20 21 21 21 22 22 23 23 23 23 23 24 24 24 24 25 25 25 25 26 27 27 27 27 27
19 19 19 19 20 20 20 21 21 21 21 21 21 21 22 22 22 23 23 23 24 24 24 24 24 25 25 25 25 25 25 26 27 27 27 27 27 28
20 20 21 21 21 22 22 22 22 22 22 22 23 23 23 23 23 23 23 24 25 25 25 26 25 26 26 26 26 26 26 26 26 26 26 26 27 28
23 23 23 23 23 23 23 23 23 22 23 23 23 23 24 24 24 24 24 24 25 25 25 25 25 26 26 26 26 25 25 25 25 26 27 27 27 28
24 25 25 25 24 24 24 24 24 24 24 25 25 26 25 25 25 25 25 25 25 25 25 25 26 26 25 25 25 25 26 26 27 27 27 27 28 29
26 26 26 26 26 26 26 26 26 26 25 26 26 26 26 26 26 26 26 26 26 26 26 26 26 27 27 26 25 26 26 27 27 27 28 28 28 29
27 27 27 27 27 27 26 27 27 27 26 27 27 27 27 27 27 27 27 27 27 27 27 27 27 26 26 27 27 27 27 27 28 28 28 28 29 29
28 28 28 29 29 29 29 28 28 28 28 28 29 28 28 28 28 28 28 28 28 28 28 28 27 27 27 27 27 27 28 28 28 29 29 29 30 30
29 29 29 29 30 30 30 29 29 29 29 30 30 30 30 30 29 29 29 29 29 29 29 28 29 29 28 28 28 28 28 29 29 30 30 30 31 32
29 29 29 30 30 30 30 30 30 30 31 31 31 31 31 30 30 30 29 30 30 30 30 31 30 31 30 29 29 30 30 30 31 31 32 33 33 32
30 31 31 31 31 30 31 31 31 31 31 31 31 31 32 31 30 30 31 31 31 31 32 32 32 32 32 31 30 31 31 31 32 32 33 33 32 32
32 32 32 32 32 32 32 32 32 32 32 32 32 32 32 31 30 30 30 31 31 31 32 32 32 32 32 32 32 32 32 32 32 33 33 33 32 32
33 33 33 33 33 32 32 32 33 33 33 33 33 33 33 32 31 31 31 31 32 32 32 32 32 32 33 34 33 32 32 32 33 33 34 34 34 33
34 34 34 33 33 33 33 34 34 34 35 35 34 34 33 33 32 32 32 32 33 33 33 33 34 34 34 34 34 34 34 33 33 34 34 34 34 33
33 34 34 34 34 35 35 36 36 36 36 36 36 35 34 34 34 34 33 33 34 33 33 34 35 35 35 34 34 34 34 34 35 33 33 33 33 33
Wind_Direction
309 309 310 310 307 307 304 301 297 296 298 297 296 296 295 288 287 289 289 288 282 278 279 284 283 280 276 277 275 275 273 273 273 274 270 270 269 269
306 307 308 307 304 305 306 307 305 303 302 297 295 295 296 294 288 289 286 282 282 286 286 282 284 285 285 283 279 278 277 277 276 276 274 273 272 270
304 302 303 306 306 303 303 304 304 304 302 298 294 292 292 290 289 288 285 285 285 286 283 281 281 282 283 283 283 281 279 278 276 275 274 273 272 272
305 303 303 304 304 303 302 301 301 302 302 298 297 293 292 292 291 292 291 289 288 287 286 284 283 283 282 282 283 282 281 281 277 274 273 273 274 274
305 304 303 302 303 303 302 301 301 302 302 299 297 296 295 292 292 292 290 288 287 287 286 285 284 283 282 283 283 282 282 280 277 275 273 273 274 276
301 301 300 300 301 301 301 301 300 302 304 302 298 298 299 295 293 292 290 288 288 290 290 287 284 282 281 283 283 281 281 279 276 275 274 275 275 276
299 300 300 299 298 299 300 300 299 300 301 301 301 299 299 298 296 295 294 292 290 291 291 289 288 286 284 283 281 280 280 278 277 276 276 277 277 277
300 301 300 300 299 298 299 299 299 299 299 299 299 298 296 295 294 295 294 293 291 291 290 290 291 290 288 286 283 281 281 279 278 278 279 279 278 279
298 298 298 299 299 298 298 298 298 298 297 297 297 297 295 294 295 295 295 294 293 291 291 291 290 288 286 285 285 283 281 281 281 281 280 278 278 279
296 297 298 297 296 296 296 296 296 296 297 295 296 296 295 295 295 294 294 293 292 292 291 292 290 288 287 286 285 282 282 284 284 284 284 282 281 281
293 294 295 295 295 295 295 295 294 294 295 295 295 295 294 293 295 295 293 292 292 291 290 291 291 289 287 285 283 283 283 285 285 286 286 286 285 287
290 290 291 292 293 294 294 294 294 294 295 297 296 295 294 293 294 294 293 292 292 291 290 290 291 291 288 285 284 284 285 286 288 289 289 288 289 291
288 289 290 291 292 293 293 293 293 294 295 296 296 295 295 295 295 294 293 292 291 290 289 290 291 291 290 288 286 286 287 288 288 290 290 290 290 291
288 288 289 290 291 292 292 293 293 294 294 295 295 294 295 294 293 293 292 291 290 288 288 288 289 290 289 287 286 286 288 288 288 288 289 290 290 290
287 288 288 290 292 292 293 293 294 294 293 294 294 293 293 294 293 292 291 290 289 288 287 288 289 288 288 287 287 286 287 288 287 287 287 288 289 291
285 286 286 288 290 291 292 292 292 292 292 293 294 293 294 293 291 291 290 288 289 287 286 287 287 287 288 289 288 287 286 286 286 286 286 287 288 291
283 284 286 288 289 290 291 292 291 291 291 292 293 292 292 291 289 289 288 286 287 287 287 286 286 284 285 287 287 285 284 284 284 284 285 286 287 289
283 285 286 286 287 287 289 291 292 292 293 293 293 294 294 292 289 287 286 286 285 285 285 286 286 285 284 285 285 285 284 284 285 285 286 287 288 288
282 283 284 284 285 285 287 289 290 291 292 293 294 295 294 292 288 286 286 286 285 284 285 284 285 287 285 285 285 285 286 286 286 286 288 289 289 289
282 282 283 283 283 284 286 287 289 290 291 293 293 294 294 292 289 287 287 287 286 286 285 285 286 286 285 284 284 285 286 287 287 287 288 289 290 290
280 281 282 282 283 284 285 286 288 289 290 291 292 292 291 290 288 287 287 286 286 286 285 284 285 285 284 284 285 286 287 286 286 286 287 288 289 290
279 279 280 280 283 284 286 287 288 288 288 289 290 290 288 287 286 286 285 285 284 285 285 285 285 285 286 286 286 286 287 286 286 286 286 287 289 291
278 279 280 281 282 283 284 286 286 287 287 288 289 289 288 287 285 284 284 284 284 284 284 285 286 285 286 287 288 287 287 287 287 287 287 287 288 289
Height
5878 5877 5876 5874 5873 5872 5871 5869 5869 5867 5866 5865 5863 5862 5861 5859 5859 5858 5858 5857 5856 5855 5855 5854 5853 5853 5852 5851 5851 5851 5850 5850 5849 5849 5848 5848 5848 5848
5876 5874 5873 5872 5871 5869 5868 5867 5865 5864 5863 5861 5859 5858 5857 5856 5855 5854 5853 5852 5851 5851 5850 5849 5849 5848 5847 5847 5846 5846 5845 5845 5844 5843 5843 5842 5842 5842
5873 5872 5871 5869 5868 5867 5865 5864 5862 5861 5859 5858 5856 5854 5853 5852 5851 5850 5849 5848 5847 5846 5845 5845 5844 5844 5843 5842 5841 5840 5840 5839 5838 5837 5837 5837 5836 5836
5870 5869 5868 5866 5865 5863 5862 5861 5859 5857 5856 5854 5852 5850 5849 5848 5846 5845 5844 5843 5842 5841 5840 5840 5839 5839 5838 5837 5836 5835 5834 5833 5832 5831 5831 5831 5830 5829
5867 5866 5865 5863 5861 5860 5859 5857 5855 5854 5852 5850 5848 5846 5845 5843 5842 5840 5839 5838 5837 5836 5835 5834 5834 5833 5832 5831 5830 5829 5828 5827 5826 5825 5825 5824 5823 5822
5864 5862 5861 5859 5858 5856 5855 5853 5851 5849 5847 5845 5844 5842 5840 5838 5837 5836 5834 5833 5832 5831 5829 5828 5827 5826 5825 5824 5823 5822 5821 5820 5819 5818 5818 5817 5816 5815
5860 5858 5857 5855 5853 5852 5850 5848 5847 5845 5843 5841 5839 5837 5836 5834 5832 5831 5829 5828 5827 5825 5824 5822 5821 5820 5819 5818 5817 5815 5814 5813 5812 5812 5811 5809 5808 5807
5855 5854 5852 5851 5849 5847 5845 5843 5842 5840 5838 5836 5834 5832 5831 5829 5827 5826 5824 5823 5821 5820 5818 5816 5815 5814 5812 5811 5810 5809 5808 5807 5806 5805 5803 5802 5801 5800
5851 5849 5848 5846 5844 5842 5840 5838 5836 5834 5833 5831 5829 5827 5825 5824 5822 5820 5819 5817 5815 5814 5812 5810 5808 5807 5806 5804 5803 5802 5801 5799 5798 5797 5795 5794 5793 5792
5846 5844 5843 5841 5839 5837 5835 5833 5831 5829 5827 5825 5824 5821 5819 5817 5815 5814 5812 5811 5809 5807 5805 5804 5802 5800 5799 5797 5796 5795 5793 5792 5790 5789 5787 5786 5785 5784
5840 5839 5837 5835 5833 5831 5829 5827 5825 5823 5821 5819 5818 5815 5814 5811 5809 5808 5806 5804 5802 5801 5799 5797 5795 5793 5792 5790 5789 5787 5786 5784 5783 5781 5780 5779 5777 5775
5835 5833 5831 5829 5827 5825 5823 5821 5819 5817 5815 5814 5811 5809 5807 5805 5803 5801 5799 5797 5795 5794 5792 5790 5788 5786 5785 5783 5781 5780 5778 5777 5776 5774 5773 5771 5769 5768
5828 5826 5824 5823 5821 5819 5817 5815 5813 5811 5809 5807 5805 5802 5800 5798 5796 5794 5792 5790 5788 5787 5785 5783 5781 5779 5777 5776 5774 5773 5771 5770 5769 5767 5765 5763 5762 5760
5821 5819 5817 5815 5814 5812 5810 5808 5806 5804 5802 5800 5797 5795 5793 5791 5789 5787 5785 5783 5781 5779 5778 5776 5774 5772 5770 5768 5767 5765 5764 5762 5761 5759 5757 5755 5754 5752
5813 5812 5810 5808 5806 5804 5802 5800 5798 5796 5794 5792 5790 5788 5785 5783 5781 5779 5777 5775 5773 5772 5770 5768 5767 5765 5763 5761 5759 5758 5756 5754 5753 5751 5749 5747 5745 5743
5805 5803 5802 5800 5798 5796 5795 5793 5791 5788 5786 5784 5782 5780 5777 5775 5773 5772 5770 5768 5766 5764 5762 5760 5759 5757 5755 5753 5751 5749 5748 5746 5745 5743 5741 5739 5737 5735
5796 5795 5793 5792 5790 5788 5786 5784 5782 5780 5778 5776 5773 5771 5769 5767 5765 5763 5761 5759 5758 5756 5754 5752 5750 5749 5747 5745 5743 5741 5739 5738 5736 5734 5732 5730 5728 5726
5787 5786 5784 5783 5781 5780 5778 5776 5773 5771 5769 5767 5765 5762 5760 5758 5756 5754 5752 5750 5749 5747 5745 5743 5742 5740 5738 5737 5735 5733 5731 5729 5727 5725 5723 5721 5720 5717
5778 5777 5776 5774 5773 5771 5769 5767 5765 5763 5761 5758 5756 5753 5751 5749 5747 5745 5743 5741 5739 5737 5736 5734 5732 5731 5729 5727 5726 5724 5722 5720 5718 5716 5714 5712 5710 5708
5769 5768 5766 5765 5763 5762 5760 5758 5756 5754 5752 5749 5747 5744 5742 5740 5738 5736 5734 5732 5730 5728 5726 5725 5723 5721 5719 5718 5716 5714 5712 5710 5708 5706 5704 5702 5700 5698
5759 5758 5757 5755 5754 5752 5750 5749 5747 5745 5742 5740 5738 5735 5733 5730 5728 5726 5724 5722 5720 5719 5717 5715 5713 5711 5709 5707 5706 5704 5702 5700 5698 5696 5694 5692 5689 5687
5749 5748 5746 5745 5744 5742 5741 5739 5737 5735 5732 5730 5728 5725 5723 5720 5718 5716 5714 5712 5710 5709 5707 5705 5703 5701 5699 5697 5695 5693 5691 5689 5687 5685 5683 5681 5679 5677
5738 5737 5736 5735 5734 5732 5731 5729 5727 5724 5722 5719 5717 5715 5712 5710 5708 5706 5704 5702 5700 5698 5696 5694 5692 5691 5689 5687 5685 5683 5681 5679 5677 5675 5673 5671 5670 5668